This is the latest recevied weather packets stored in our database for station/object KJ4EWA. If no packets are shown the sender has not sent any weather packets the latest 10 day(s).
| Time | Temp. | Humidity | Pressure | Rain* | Wind** | Luminosity | Snow |
|---|---|---|---|---|---|---|---|
| 1777838473 | 26.67° C | 39% | 1021.4 hPa | 0 mm | - | 623 W/m² | - |
| 1777838170 | 27.22° C | 43% | 1021.6 hPa | 0 mm | - | 570 W/m² | - |
| 1777837866 | 26.11° C | 37% | 1021.8 hPa | 0 mm | - | 301 W/m² | - |
| 1777837563 | 26.11° C | 39% | 1021.7 hPa | 0 mm | - | 275 W/m² | - |
| 1777837258 | 26.67° C | 36% | 1021.8 hPa | 0 mm | - | 334 W/m² | - |
| 1777836955 | 26.67° C | 38% | 1022.1 hPa | 0 mm | - | 705 W/m² | - |
| 1777836651 | 26.67° C | 39% | 1022.2 hPa | 0 mm | - | 735 W/m² | - |
| 1777836347 | 26.67° C | 41% | 1022.3 hPa | 0 mm | - | 696 W/m² | - |
| 1777836043 | 26.67° C | 43% | 1022.5 hPa | 0 mm | - | 690 W/m² | - |
| 1777835739 | 26.11° C | 39% | 1022.5 hPa | 0 mm | - | 681 W/m² | - |
| 1777835436 | 26.67° C | 40% | 1022.9 hPa | 0 mm | - | 499 W/m² | - |
| 1777835133 | 25.56° C | 42% | 1023 hPa | 0 mm | - | 656 W/m² | - |
| 1777834830 | 25.56° C | 41% | 1022.8 hPa | 0 mm | - | 630 W/m² | - |
| 1777834527 | 25.56° C | 36% | 1022.8 hPa | 0 mm | - | 685 W/m² | - |
| 1777834221 | 25.56° C | 36% | 1023.1 hPa | 0 mm | - | 734 W/m² | - |
| 1777833918 | 26.67° C | 37% | 1023.1 hPa | 0 mm | - | 723 W/m² | - |
| 1777833614 | 26.11° C | 36% | 1022.9 hPa | 0 mm | - | 736 W/m² | - |
| 1777833311 | 25.56° C | 41% | 1023 hPa | 0 mm | - | 749 W/m² | - |
| 1777833008 | 26.11° C | 42% | 1023.1 hPa | 0 mm | - | 740 W/m² | - |
| 1777832707 | 25° C | 40% | 1023.2 hPa | 0 mm | - | 725 W/m² | - |
| 1777832404 | 25.56° C | 40% | 1023.5 hPa | 0 mm | - | 632 W/m² | - |
| 1777832101 | 26.11° C | 43% | 1023.5 hPa | 0 mm | - | 635 W/m² | - |
| 1777831796 | 25.56° C | 41% | 1023.4 hPa | 0 mm | - | 707 W/m² | - |
| 1777831495 | 26.11° C | 40% | 1023.3 hPa | 0 mm | - | 755 W/m² | - |
| 1777831191 | 25.56° C | 39% | 1023.3 hPa | 0 mm | - | 814 W/m² | - |
* Rain latest hour (hover to see other rain measurements)
** Current wind speed in m/s (hover to see current wind gust speed)